DW0333 Tranby-Lier NO current weather conditions

sailwx.info

Wind from 237 at 4 knots

Air temperature 23.9° C
Dewpoint 14.3° C

Last reported at 2015-Jul-01 11:43 UTC.
Time now 2015-Jul-01 12:53 UTC

Location: N 59°50' E 010°17'.
View on Google Maps.

See reports from other nearby stations

  
Tides and Currents Weather Stations Pressure Air Temp Water Temp Dewpoint Dewpoint Depression Visibility Wind Speed Wind Dir Waves Ship Positions
date/time (UTC)wind fromknots sea level pressurealtimeterstation pressurevisibilityair tempwater tempwave heightnotes
2015-Jul-01 11:43 237 4 23.9
2015-Jul-01 11:28 194 4 23.9
2015-Jul-01 11:12 177 4 23.9
2015-Jul-01 10:57 171 3 23.3
2015-Jul-01 10:42 130 4 23.3
2015-Jul-01 10:27 143 4 23.3
2015-Jul-01 10:11 160 4 22.8
2015-Jul-01 09:56 227 4 22.2
2015-Jul-01 09:41 142 4 22.2
2015-Jul-01 09:26 138 3 22.2
2015-Jul-01 09:10 212 4 21.7
2015-Jul-01 08:55 177 2 22.2
2015-Jul-01 08:40 132 2 21.7
2015-Jul-01 08:25 207 2 21.1
2015-Jul-01 08:10 152 2 20.6
2015-Jul-01 07:54 143 2 20.6
2015-Jul-01 07:41 131 1 20.0
2015-Jul-01 07:23 191 2 19.4
2015-Jul-01 07:08 217 1 18.9
2015-Jul-01 06:53 173 0 18.3
2015-Jul-01 06:37 185 1 18.3
2015-Jul-01 06:22 176 0 17.8
2015-Jul-01 06:07 176 0 17.2
2015-Jul-01 05:51 176 16.1
2015-Jul-01 05:36 176 15.0
2015-Jul-01 05:21 175 0 14.4
2015-Jul-01 05:05 175 0 14.4
2015-Jul-01 04:50 177 14.4
2015-Jul-01 04:35 207 14.4
2015-Jul-01 04:20 207 14.4
2015-Jul-01 04:05 207 14.4
2015-Jul-01 03:50 207 14.4
2015-Jul-01 03:33 207 0 14.4
2015-Jul-01 03:18 207 0 14.4
2015-Jul-01 03:03 178 0 14.4
2015-Jul-01 02:48 158 14.4
2015-Jul-01 02:32 150 15.0
2015-Jul-01 02:17 145 15.0
2015-Jul-01 02:02 145 15.0
2015-Jul-01 01:46 145 15.0
2015-Jul-01 01:31 145 0 15.0
2015-Jul-01 01:16 144 15.0
2015-Jul-01 00:46 144 0 15.0
2015-Jul-01 00:16 145 15.0
2015-Jul-01 00:01 145 0 15.0
2015-Jun-30 23:46 135 0 15.0
2015-Jun-30 23:31 179 0 15.0
2015-Jun-30 23:16 120 1 15.6
2015-Jun-30 22:58 176 1 15.6
2015-Jun-30 22:43 153 1 15.6
2015-Jun-30 22:28 188 1 15.6
2015-Jun-30 22:13 146 0 15.6
2015-Jun-30 21:57 127 0 15.6
2015-Jun-30 21:42 131 1 15.6
2015-Jun-30 21:27 113 2 15.6
2015-Jun-30 21:11 145 1 15.6
2015-Jun-30 20:56 136 1 16.1
2015-Jun-30 20:25 111 2 16.1
2015-Jun-30 20:10 129 2 16.1
2015-Jun-30 19:55 139 3 16.1
2015-Jun-30 19:40 146 3 16.7
2015-Jun-30 19:25 099 3 16.7
2015-Jun-30 19:10 158 3 16.7
2015-Jun-30 18:55 177 4 16.7
2015-Jun-30 18:40 185 6 17.2
2015-Jun-30 18:23 192 5 17.2
2015-Jun-30 18:08 212 6 17.2
2015-Jun-30 17:53 158 6 17.2
2015-Jun-30 17:37 166 6 17.8
2015-Jun-30 17:22 161 6 18.3
2015-Jun-30 17:07 159 5 19.4
2015-Jun-30 16:52 171 3 20.0
2015-Jun-30 16:37 142 4 21.1
2015-Jun-30 16:21 196 2 21.7
2015-Jun-30 16:06 173 0 21.1
2015-Jun-30 15:50 166 3 21.7
2015-Jun-30 15:35 177 1 21.7
2015-Jun-30 15:20 175 1 21.7
2015-Jun-30 15:05 238 2 21.7
2015-Jun-30 14:50 164 3 22.2
2015-Jun-30 14:35 188 2 22.2
2015-Jun-30 14:20 207 2 21.7
2015-Jun-30 14:05 187 2 21.1
2015-Jun-30 13:50 288 2 20.6
2015-Jun-30 13:33 293 1 21.1
2015-Jun-30 13:18 326 2 21.1
2015-Jun-30 13:03 289 1 21.1
2015-Jun-30 12:47 298 3 21.1
2015-Jun-30 12:33 285 1 21.7
2015-Jun-30 12:17 304 1 20.6
2015-Jun-30 12:01 277 1 19.4
2015-Jun-30 11:46 155 2 20.6
2015-Jun-30 11:31 284 2 20.0
2015-Jun-30 11:16 288 2 18.9
2015-Jun-30 11:01 289 2 19.4
2015-Jun-30 10:46 299 3 19.4
2015-Jun-30 10:31 332 2 18.9
2015-Jun-30 10:16 284 0 18.3
2015-Jun-30 10:01 281 2 18.3
2015-Jun-30 09:46 217 3 17.8
2015-Jun-30 09:28 028 4 17.2
2015-Jun-30 09:13 348 4 17.2
2015-Jun-30 08:58 015 2 17.2
2015-Jun-30 08:43 045 1 16.1
2015-Jun-30 08:27 325 1 15.0
2015-Jun-30 08:12 304 2 15.0
2015-Jun-30 07:57 304 4 15.6
2015-Jun-30 07:41 292 4 15.0
2015-Jun-30 07:26 323 3 14.4
2015-Jun-30 07:11 029 3 13.3
2015-Jun-30 06:55 291 1 12.8
2015-Jun-30 06:40 340 2 12.2
2015-Jun-30 06:25 324 2 12.2
2015-Jun-30 06:10 302 2 12.8
2015-Jun-30 05:55 310 2 12.8
2015-Jun-30 05:40 309 3 12.2
2015-Jun-30 05:23 298 2 11.7
2015-Jun-30 05:08 327 2 11.7
2015-Jun-30 04:53 315 2 11.1
2015-Jun-30 04:38 321 2 11.1
2015-Jun-30 04:22 358 2 11.1
2015-Jun-30 04:07 340 1 11.1
2015-Jun-30 03:52 325 2 11.1
2015-Jun-30 03:37 290 1 11.1
2015-Jun-30 03:21 321 2 11.1
2015-Jun-30 03:06 296 3 11.1
2015-Jun-30 02:51 007 2 10.6
2015-Jun-30 02:35 327 3 10.6
2015-Jun-30 02:20 330 3 10.6
2015-Jun-30 02:05 348 4 10.6
2015-Jun-30 01:50 339 3 10.6
2015-Jun-30 01:35 325 2 10.6
2015-Jun-30 01:20 323 3 10.6
2015-Jun-30 01:05 344 2 10.6
2015-Jun-30 00:48 318 2 10.6
2015-Jun-30 00:33 302 4 11.1
2015-Jun-30 00:18 329 4 11.1
2015-Jun-30 00:02 324 3 11.1
2015-Jun-29 23:47 289 4 11.7
2015-Jun-29 23:32 304 5 11.7
2015-Jun-29 23:17 304 4 11.7
2015-Jun-29 23:01 306 3 12.2
2015-Jun-29 22:46 292 3 12.2
2015-Jun-29 22:32 282 4 12.2
2015-Jun-29 22:16 301 4 12.2
2015-Jun-29 22:01 318 5 12.2
2015-Jun-29 21:46 296 4 12.2
2015-Jun-29 21:31 272 3 12.2
2015-Jun-29 21:16 298 4 12.2
2015-Jun-29 21:01 293 1 12.8
2015-Jun-29 20:46 358 1 12.8
2015-Jun-29 20:28 294 1 13.3
2015-Jun-29 20:13 311 1 13.9
2015-Jun-29 19:58 296 1 14.4
2015-Jun-29 19:43 236 14.4
2015-Jun-29 19:27 245 0 15.0
2015-Jun-29 19:11 288 0 15.0
2015-Jun-29 18:56 329 0 15.0
2015-Jun-29 18:41 360 0 15.0
2015-Jun-29 18:24 093 15.0
2015-Jun-29 18:11 093 15.0
2015-Jun-29 17:53 093 15.6
2015-Jun-29 17:37 108 1 15.6
2015-Jun-29 17:23 043 16.1
2015-Jun-29 17:06 075 1 16.1
2015-Jun-29 16:51 107 2 16.7
2015-Jun-29 16:35 100 1 16.7
2015-Jun-29 16:19 111 4 16.7
2015-Jun-29 16:03 075 3 16.7
2015-Jun-29 15:48 111 1 16.1
2015-Jun-29 15:32 356 3 16.7
2015-Jun-29 15:17 090 2 18.3
2015-Jun-29 15:01 200 3 18.9
2015-Jun-29 14:47 207 5 20.6
2015-Jun-29 14:31 153 6 20.0
2015-Jun-29 14:15 139 5 18.9
2015-Jun-29 14:01 160 5 18.3
2015-Jun-29 13:43 157 5 19.4
2015-Jun-29 13:12 189 6 18.9
2015-Jun-29 12:57 165 4 18.9
2015-Jun-29 12:41 157 6 18.9
2015-Jun-29 12:26 185 4 19.4
2015-Jun-29 12:09 148 3 19.4